[ hide orbit diagram ]
For accurate long-term ephemerides, please instead use our Horizons system.This orbit viewer was implemented using two-body methods, and hence should not be used for determining accurate long-term trajectories (over several years or decades) or planetary encounter circumstances.
Orbital Elements at Epoch 2459200.5 (2020-Dec-17.0) TDB
Reference: JPL 18 (heliocentric ecliptic J2000)
Element | Value | Uncertainty (1-sigma) | Units |
e | .2268383936713984 | 4.7724e-08 | |
a | 2.572251904175056 | 1.2606e-08 | au |
q | 1.988766414113791 | 1.2268e-07 | au |
i | 2.798569486798481 | 4.9255e-06 | deg |
node | 302.8823158731064 | 8.8107e-05 | deg |
peri | 53.41382735396468 | 8.8835e-05 | deg |
M | 237.1993491131396 | 1.7679e-05 | deg |
tp | 2459714.504405019554 (2022-May-15.00440502) | 7.7243e-05 | TDB |
period | 1506.84531776239 4.13 | 1.1077e-05 3.033e-08 | d yr |
n | .2389097246786995 | 1.7563e-09 | deg/d |
Q | 3.155737394236322 | 1.5466e-08 | au |
|
| | Orbit Determination Parameters
Additional Information
|
[ show covariance matrix ]
Physical Parameter Table
Parameter |
Symbol |
Value |
Units |
Sigma |
Reference |
Notes |
absolute magnitude |
H |
14.43 |
|
n/a |
E2021B10 |
|
|
26212 (1997 TG26) Discovered 1997-Oct-11 by Beijing Schmidt CCD Asteroid Program at Xinglong |
Reference: 20010705/Numbers.arc | Last Updated: 2004-04-19 |
|
|